| time (UTC) | temp F | wind direction | speed MPH | gust MPH | rain 1hr in | rain 24hr in | rain mn in | humidity % | barometer mb |
| 20260504035509 | 68 | 107 | 7.0 | 15.0 | 0.00 | 0.08 | 0.00 | 53 | 1005.9 |
| 20260504035010 | 68 | 200 | 7.0 | 25.0 | 0.00 | 0.08 | 0.00 | 51 | 1006.0 |
| 20260504034010 | 68 | 202 | 7.0 | 16.0 | 0.00 | 0.08 | 0.00 | 53 | 1006.1 |
| 20260504033509 | 68 | 169 | 6.0 | 13.0 | 0.00 | 0.08 | 0.00 | 54 | 1006.2 |
| 20260504033011 | 68 | 115 | 9.0 | 16.0 | 0.00 | 0.08 | 0.00 | 52 | 1006.2 |
| 20260504032508 | 68 | 188 | 8.0 | 20.0 | 0.00 | 0.08 | 0.00 | 52 | 1006.3 |
| 20260504032010 | 68 | 186 | 6.0 | 16.0 | 0.00 | 0.08 | 0.00 | 54 | 1006.4 |
| 20260504030509 | 68 | 187 | 7.0 | 14.0 | 0.00 | 0.08 | 0.00 | 55 | 1006.7 |
| 20260504030011 | 68 | 190 | 11.0 | 22.0 | 0.00 | 0.08 | 0.00 | 54 | 1006.8 |
| 20260504025509 | 68 | 333 | 6.0 | 12.0 | 0.00 | 0.08 | 0.00 | 56 | 1006.8 |
| 20260504025011 | 68 | 174 | 6.0 | 13.0 | 0.00 | 0.08 | 0.00 | 56 | 1006.8 |
| 20260504024510 | 67 | 191 | 6.0 | 12.0 | 0.00 | 0.08 | 0.00 | 57 | 1006.9 |
| 20260504024010 | 67 | 195 | 6.0 | 15.0 | 0.00 | 0.08 | 0.00 | 57 | 1006.8 |
| 20260504022509 | 67 | 141 | 9.0 | 15.0 | 0.00 | 0.08 | 0.00 | 59 | 1007.1 |
| 20260504021508 | 66 | 108 | 6.0 | 12.0 | 0.00 | 0.09 | 0.00 | 60 | 1007.2 |
| 20260504020509 | 66 | 176 | 7.0 | 18.0 | 0.00 | 0.12 | 0.00 | 59 | 1007.4 |
| 20260504020011 | 66 | 16 | 8.0 | 20.0 | 0.00 | 0.13 | 0.00 | 59 | 1007.4 |
| 20260504015011 | 66 | 21 | 8.0 | 18.0 | 0.00 | 0.16 | 0.00 | 59 | 1007.6 |
| 20260504014010 | 67 | 22 | 6.0 | 18.0 | 0.00 | 0.22 | 0.00 | 59 | 1007.7 |
| 20260504013509 | 67 | 318 | 5.0 | 13.0 | 0.00 | 0.25 | 0.00 | 60 | 1007.6 |
| 20260504013010 | 67 | 128 | 5.0 | 15.0 | 0.00 | 0.28 | 0.00 | 61 | 1007.8 |
| 20260504012509 | 66 | 31 | 8.0 | 16.0 | 0.00 | 0.30 | 0.00 | 60 | 1007.9 |
| 20260504012011 | 66 | 48 | 9.0 | 14.0 | 0.00 | 0.31 | 0.00 | 60 | 1007.9 |
| 20260504011011 | 66 | 61 | 4.0 | 10.0 | 0.00 | 0.38 | 0.00 | 63 | 1007.8 |
| 20260504010509 | 66 | 142 | 7.0 | 14.0 | 0.00 | 0.39 | 0.00 | 61 | 1007.9 |
| 20260504010011 | 65 | 95 | 7.0 | 12.0 | 0.00 | 0.39 | 0.00 | 61 | 1008.0 |
| 20260504005509 | 66 | 191 | 6.0 | 13.0 | 0.00 | 0.40 | 0.00 | 61 | 1008.0 |
| 20260504004509 | 65 | 196 | 6.0 | 12.0 | 0.00 | 0.42 | 0.00 | 62 | 1008.1 |
| 20260504004011 | 65 | 152 | 8.0 | 13.0 | 0.00 | 0.44 | 0.00 | 61 | 1008.1 |
| 20260504003510 | 65 | 310 | 7.0 | 15.0 | 0.00 | 0.46 | 0.00 | 63 | 1007.9 |
| 20260504003010 | 65 | 5 | 7.0 | 12.0 | 0.00 | 0.46 | 0.00 | 63 | 1007.9 |
| 20260504002509 | 65 | 11 | 8.0 | 15.0 | 0.00 | 0.46 | 0.00 | 63 | 1008.1 |
| 20260504002009 | 65 | 200 | 6.0 | 15.0 | 0.00 | 0.46 | 0.00 | 64 | 1008.2 |
| 20260504001509 | 64 | 188 | 4.0 | 12.0 | 0.00 | 0.46 | 0.00 | 65 | 1008.0 |
| 20260504001011 | 64 | 40 | 5.0 | 10.0 | 0.00 | 0.46 | 0.00 | 64 | 1008.0 |
| 20260504000509 | 64 | 186 | 8.0 | 14.0 | 0.00 | 0.46 | 0.00 | 64 | 1008.0 |
| 20260504000011 | 64 | 3 | 6.0 | 12.0 | 0.00 | 0.46 | 0.00 | 65 | 1007.9 |
| 20260503235509 | 64 | 40 | 10.0 | 15.0 | 0.00 | 0.46 | 0.00 | 64 | 1008.0 |
| 20260503235011 | 64 | 295 | 9.0 | 16.0 | 0.00 | 0.46 | 0.00 | 64 | 1008.1 |
| 20260503234510 | 64 | 194 | 7.0 | 13.0 | 0.00 | 0.46 | 0.00 | 64 | 1008.1 |
| 20260503234010 | 63 | 0 | 6.0 | 14.0 | 0.00 | 0.46 | 0.00 | 64 | 1008.0 |
| 20260503232509 | 63 | 56 | 6.0 | 18.0 | 0.00 | 0.46 | 0.00 | 65 | 1008.2 |
| 20260503232010 | 63 | 89 | 7.0 | 13.0 | 0.00 | 0.46 | 0.00 | 66 | 1008.4 |
| 20260503231509 | 62 | 296 | 6.0 | 12.0 | 0.00 | 0.46 | 0.00 | 66 | 1008.2 |
| 20260503231009 | 62 | 0 | 7.0 | 15.0 | 0.00 | 0.46 | 0.00 | 66 | 1008.2 |
| 20260503230011 | 61 | 24 | 6.0 | 12.0 | 0.00 | 0.46 | 0.00 | 67 | 1008.3 |
| 20260503225509 | 61 | 45 | 6.0 | 16.0 | 0.00 | 0.46 | 0.00 | 68 | 1008.3 |
| 20260503224509 | 60 | 165 | 5.0 | 9.0 | 0.00 | 0.46 | 0.00 | 69 | 1008.4 |
| 20260503224011 | 60 | 188 | 5.0 | 10.0 | 0.00 | 0.46 | 0.00 | 70 | 1008.4 |
| 20260503223509 | 59 | 42 | 6.0 | 12.0 | 0.00 | 0.46 | 0.00 | 72 | 1008.4 |
| 20260503223009 | 59 | 111 | 6.0 | 12.0 | 0.00 | 0.46 | 0.00 | 72 | 1008.4 |
| 20260503222509 | 58 | 41 | 5.0 | 14.0 | 0.00 | 0.46 | 0.00 | 73 | 1008.4 |
| 20260503221509 | 58 | 26 | 6.0 | 9.0 | 0.00 | 0.46 | 0.00 | 74 | 1008.4 |
| 20260503220508 | 58 | 194 | 5.0 | 9.0 | 0.00 | 0.46 | 0.00 | 74 | 1008.4 |
| 20260503220011 | 58 | 27 | 6.0 | 10.0 | 0.00 | 0.46 | 0.00 | 75 | 1008.5 |
| 20260503215509 | 57 | 181 | 5.0 | 10.0 | 0.00 | 0.46 | 0.00 | 75 | 1008.5 |
| 20260503215010 | 57 | 187 | 4.0 | 9.0 | 0.00 | 0.46 | 0.00 | 75 | 1008.5 |
| 20260503214010 | 57 | 148 | 5.0 | 8.0 | 0.00 | 0.46 | 0.00 | 75 | 1008.3 |
| 20260503213010 | 57 | 21 | 5.0 | 12.0 | 0.00 | 0.46 | 0.00 | 77 | 1008.3 |
| 20260503211508 | 57 | 39 | 6.0 | 12.0 | 0.00 | 0.46 | 0.00 | 78 | 1008.4 |
| 20260503211010 | 57 | 20 | 6.0 | 12.0 | 0.00 | 0.46 | 0.00 | 78 | 1008.4 |
| 20260503210509 | 56 | 40 | 7.0 | 12.0 | 0.00 | 0.46 | 0.00 | 79 | 1008.4 |
| 20260503210011 | 56 | 3 | 6.0 | 10.0 | 0.00 | 0.46 | 0.00 | 79 | 1008.4 |
| 20260503205509 | 56 | 115 | 6.0 | 12.0 | 0.00 | 0.46 | 0.00 | 79 | 1008.4 |
| 20260503205010 | 56 | 69 | 4.0 | 9.0 | 0.00 | 0.46 | 0.00 | 79 | 1008.3 |
| 20260503204508 | 56 | 35 | 5.0 | 8.0 | 0.00 | 0.46 | 0.00 | 79 | 1008.3 |
| 20260503204010 | 57 | 41 | 5.0 | 8.0 | 0.00 | 0.46 | 0.00 | 79 | 1008.2 |
| 20260503203009 | 57 | 38 | 6.0 | 8.0 | 0.00 | 0.46 | 0.00 | 79 | 1008.0 |
| 20260503202509 | 57 | 52 | 5.0 | 12.0 | 0.00 | 0.46 | 0.00 | 80 | 1008.0 |
| 20260503202010 | 57 | 24 | 7.0 | 14.0 | 0.00 | 0.46 | 0.00 | 80 | 1008.0 |
| 20260503201509 | 57 | 21 | 6.0 | 12.0 | 0.00 | 0.46 | 0.00 | 80 | 1008.0 |
| 20260503200509 | 57 | 17 | 7.0 | 12.0 | 0.00 | 0.46 | 0.00 | 81 | 1008.0 |
| 20260503200011 | 57 | 120 | 6.0 | 13.0 | 0.00 | 0.46 | 0.00 | 81 | 1008.0 |
| 20260503195508 | 56 | 10 | 7.0 | 14.0 | 0.00 | 0.46 | 0.00 | 81 | 1008.0 |
| 20260503195010 | 56 | 31 | 6.0 | 9.0 | 0.00 | 0.46 | 0.00 | 82 | 1008.1 |
| 20260503194508 | 56 | 100 | 5.0 | 9.0 | 0.00 | 0.46 | 0.00 | 82 | 1008.1 |
| 20260503194009 | 56 | 326 | 5.0 | 9.0 | 0.00 | 0.46 | 0.00 | 82 | 1008.1 |
| 20260503193509 | 56 | 39 | 4.0 | 10.0 | 0.00 | 0.46 | 0.00 | 82 | 1008.2 |
| 20260503193009 | 56 | 118 | 6.0 | 14.0 | 0.00 | 0.46 | 0.00 | 82 | 1008.2 |
| 20260503192509 | 56 | 49 | 4.0 | 12.0 | 0.00 | 0.46 | 0.00 | 82 | 1008.3 |
| 20260503192009 | 56 | 0 | 5.0 | 8.0 | 0.00 | 0.46 | 0.00 | 82 | 1008.4 |
| 20260503191508 | 57 | 39 | 4.0 | 10.0 | 0.00 | 0.46 | 0.00 | 83 | 1008.5 |
| 20260503191009 | 57 | 29 | 6.0 | 12.0 | 0.00 | 0.46 | 0.00 | 83 | 1008.5 |
| 20260503190509 | 57 | 100 | 5.0 | 10.0 | 0.00 | 0.46 | 0.00 | 83 | 1008.5 |
| 20260503190010 | 57 | 5 | 5.0 | 10.0 | 0.00 | 0.46 | 0.00 | 83 | 1008.5 |
| 20260503185509 | 57 | 35 | 6.0 | 12.0 | 0.00 | 0.46 | 0.00 | 83 | 1008.6 |
| 20260503185009 | 57 | 13 | 5.0 | 13.0 | 0.00 | 0.46 | 0.00 | 83 | 1008.7 |
| 20260503184509 | 57 | 0 | 6.0 | 10.0 | 0.00 | 0.46 | 0.00 | 83 | 1008.7 |
| 20260503183508 | 57 | 41 | 6.0 | 9.0 | 0.00 | 0.46 | 0.00 | 82 | 1008.6 |
| 20260503183010 | 57 | 39 | 5.0 | 13.0 | 0.00 | 0.46 | 0.00 | 83 | 1008.6 |
| 20260503182010 | 57 | 104 | 5.0 | 10.0 | 0.00 | 0.46 | 0.00 | 82 | 1008.8 |
| 20260503181509 | 57 | 132 | 5.0 | 12.0 | 0.00 | 0.46 | 0.00 | 82 | 1008.8 |
| 20260503181010 | 57 | 247 | 5.0 | 12.0 | 0.00 | 0.46 | 0.00 | 82 | 1008.8 |
| 20260503180509 | 57 | 36 | 5.0 | 12.0 | 0.00 | 0.46 | 0.00 | 82 | 1008.8 |
| 20260503180011 | 57 | 21 | 4.0 | 12.0 | 0.00 | 0.46 | 0.00 | 82 | 1008.9 |
| 20260503175508 | 57 | 110 | 6.0 | 12.0 | 0.00 | 0.46 | 0.00 | 82 | 1008.9 |
| 20260503175010 | 57 | 25 | 5.0 | 12.0 | 0.00 | 0.46 | 0.00 | 82 | 1009.0 |
| 20260503174508 | 57 | 39 | 5.0 | 12.0 | 0.00 | 0.46 | 0.00 | 82 | 1008.9 |
| 20260503174010 | 57 | 19 | 6.0 | 9.0 | 0.00 | 0.46 | 0.00 | 82 | 1008.9 |
| 20260503173508 | 57 | 17 | 5.0 | 10.0 | 0.00 | 0.46 | 0.00 | 82 | 1008.9 |
| 20260503173016 | 58 | 21 | 5.0 | 9.0 | 0.00 | 0.46 | 0.00 | 82 | 1009.0 |
| 20260503172010 | 58 | 0 | 5.0 | 13.0 | 0.00 | 0.46 | 0.00 | 82 | 1009.0 |
| 20260503171010 | 58 | 17 | 6.0 | 10.0 | 0.00 | 0.46 | 0.00 | 82 | 1009.1 |
| 20260503170508 | 58 | 272 | 6.0 | 9.0 | 0.00 | 0.46 | 0.00 | 82 | 1008.9 |
| 20260503151010 | 58 | 31 | 5.0 | 12.0 | 0.00 | 0.46 | 0.00 | 81 | 1009.4 |
| 20260503150509 | 58 | 16 | 5.0 | 10.0 | 0.00 | 0.46 | 0.00 | 80 | 1009.4 |
| 20260503131018 | 59 | 46 | 3.0 | 6.0 | 0.00 | 0.46 | 0.46 | 80 | 1009.6 |
| 20260503130517 | 59 | 38 | 2.0 | 6.0 | 0.00 | 0.46 | 0.46 | 80 | 1009.7 |
| 20260503110517 | 57 | 0 | 2.0 | 5.0 | 0.00 | 0.46 | 0.46 | 81 | 1010.0 |
| 20260503081516 | 61 | 195 | 3.0 | 10.0 | 0.00 | 0.46 | 0.46 | 75 | 1007.9 |
| 20260503081018 | 62 | 193 | 3.0 | 6.0 | 0.00 | 0.46 | 0.46 | 75 | 1007.8 |
| 20260503080516 | 62 | 311 | 3.0 | 7.0 | 0.00 | 0.46 | 0.46 | 75 | 1007.9 |
| 20260503072018 | 62 | 195 | 3.0 | 7.0 | 0.00 | 0.46 | 0.46 | 80 | 1008.1 |
| 20260503071516 | 62 | 191 | 3.0 | 10.0 | 0.00 | 0.46 | 0.46 | 80 | 1007.8 |
| 20260503071018 | 62 | 178 | 5.0 | 8.0 | 0.00 | 0.46 | 0.46 | 81 | 1007.7 |
| 20260503070516 | 62 | 191 | 3.0 | 7.0 | 0.00 | 0.46 | 0.46 | 82 | 1007.5 |
| 20260503055017 | 64 | 183 | 4.0 | 12.0 | 0.07 | 0.45 | 0.45 | 85 | 1007.3 |
| 20260503054516 | 65 | 168 | 5.0 | 10.0 | 0.07 | 0.45 | 0.45 | 84 | 1007.4 |
| 20260503054018 | 66 | 172 | 7.0 | 14.0 | 0.07 | 0.45 | 0.45 | 83 | 1007.4 |
| 20260503053516 | 67 | 173 | 5.0 | 8.0 | 0.05 | 0.43 | 0.43 | 84 | 1007.6 |
| 20260503053018 | 67 | 165 | 5.0 | 7.0 | 0.02 | 0.40 | 0.40 | 83 | 1007.3 |
| 20260503052516 | 67 | 190 | 2.0 | 9.0 | 0.02 | 0.40 | 0.40 | 82 | 1007.0 |
| 20260503052018 | 68 | 182 | 4.0 | 12.0 | 0.01 | 0.39 | 0.39 | 81 | 1007.1 |
| 20260503051516 | 68 | 179 | 7.0 | 12.0 | 0.01 | 0.39 | 0.39 | 81 | 1006.9 |
| 20260503051017 | 68 | 257 | 7.0 | 13.0 | 0.00 | 0.38 | 0.38 | 80 | 1006.9 |
| 20260503050018 | 68 | 193 | 7.0 | 13.0 | 0.00 | 0.38 | 0.38 | 79 | 1006.9 |
| 20260503045018 | 68 | 324 | 6.0 | 12.0 | 0.00 | 0.38 | 0.38 | 80 | 1006.9 |
| 20260503044516 | 68 | 185 | 7.0 | 12.0 | 0.00 | 0.38 | 0.38 | 80 | 1006.9 |
| 20260503044018 | 68 | 311 | 3.0 | 10.0 | 0.00 | 0.38 | 0.38 | 80 | 1006.8 |
| 20260503043517 | 68 | 194 | 5.0 | 12.0 | 0.00 | 0.38 | 0.38 | 80 | 1006.8 |
| 20260503043019 | 68 | 45 | 7.0 | 12.0 | 0.00 | 0.38 | 0.38 | 81 | 1006.7 |
| 20260503042516 | 68 | 24 | 6.0 | 10.0 | 0.00 | 0.38 | 0.38 | 81 | 1006.5 |
| 20260503042018 | 68 | 194 | 6.0 | 12.0 | 0.00 | 0.38 | 0.38 | 82 | 1006.7 |
| 20260503041516 | 68 | 230 | 6.0 | 10.0 | 0.00 | 0.38 | 0.38 | 82 | 1006.8 |
| 20260503041017 | 67 | 120 | 6.0 | 13.0 | 0.00 | 0.38 | 0.38 | 83 | 1006.7 |
| 20260503040516 | 67 | 200 | 3.0 | 9.0 | 0.00 | 0.38 | 0.38 | 84 | 1006.7 |
| 20260503040018 | 67 | 133 | 6.0 | 10.0 | 0.00 | 0.38 | 0.38 | 86 | 1006.7 |